Weather in 1-Besarang

Uzbekistan     40°34′06″N   71°46′40″E
temp.,
°C
wind,
m/s
gust,
m/s
humid.,
%
clouds,
%
prec.,
mm/h
press.,
hPa
HPBL,
m
22 april, thu
thu2223:00+13w612500 0.0 1019528
02:00+12wsw713550 0.0 1021581
05:00+11w59630 0.0 1023243
08:00+13w45560 0.0 1025609
11:00+17wsw33400 0.0 10241313
14:00+20wsw32270 0.0 10231801
17:00+21wsw11220 0.0 10231813
20:00+17se11280 0.0 102311
23 april, fri
fri2323:00+15ese11340 0.0 102413
02:00+13se22280 0.0 102327
05:00+12e22310 0.0 102318
08:00+16ene11230 0.0 1024290
11:00+21nne32230 0.0 10231366
14:00+23ene11170 0.0 10201967
17:00+23nne1115100 0.0 10191972
20:00+20ene222116 0.0 102016
24 april, sat
sat2423:00+17ese22271 0.0 101922
02:00+15e12300 0.0 101916
05:00+14e112943 0.0 101916
08:00+18ene2323100 0.0 1020293
11:00+22ne221988 0.0 1018970
14:00+25wnw2214100 0.0 10171805
17:00+25w2216100 0.0 1017759
20:00+22e2218100 0.0 101811
25 april, sun
sun2523:00+20ese2223100 0.0 101912
02:00+18ene222765 0.0 101913
05:00+15ne2234100 0.0 101919
08:00+19ne1129100 0.0 1020204
11:00+25nne222093 0.0 1019853
14:00+28s1114100 0.0 10171641
17:00+28wsw1114100 0.0 10161559
20:00+24ssw1120100 0.0 101711
26 april, mon
mon2623:00+22se2223100 0.0 101711
02:00+20ene1128100 0.0 101712
05:00+18ese1133100 0.0 101812
08:00+22ene01280 0.0 1019235
11:00+27ne22190 0.0 10171076
14:00+30ne33130 0.0 10142084
17:00+31ene33120 0.0 10131968
20:00+25ne22200 0.0 101312